STARLINK C (59924 NORAD) Tracking and Keplerian Element Data

This shows tracking and keplerian element data for the satellite.

Feedback or suggestion? Click here.




ElementValue
Catalog59924
NameSTARLINK C
Epoch Orbit228
Epoch Day160.16667824
Epoch Year2024
RAAN22.4899
Inclination43.0027
Eccentricity0.0002098
Argument of Perigee279.3989
Mean Anonmoly140.1816
Mean Motion15.92014719
Decay Rate-0.00892274
L11 59924U 24106C 24160.16667824 -.00892274 24553-3 -25865-2 0 9999
L22 59924 43.0027 22.4899 0002098 279.3989 140.1816 15.92014719 2289



Live tracking and technical data element details for STARLINK C (NORAD 59924). STARLINK C can be tracked NOW for your location showing map with azimuth and elevation plus other details from your city location.







IsCatalogInMostPopularTable: catalog: 59924, numindb: 8
Update: records affected: 1



GetName: 59924 STARLINK C

Hit Count: updated at: Tue, 16 Jul 2024 03:00:45 GMT